Flag for Canada Weather past 2 weeks in Bathurst, New Brunswick, Canada

Now
55 °F

Passing clouds.


Feels Like: 55 °F
Forecast: 59 / 76 °F
Wind: 2 mph from Southwest

Location: Bathurst Airport

Current Time: Aug 1, 2015 at 7:12:00 AM

Latest Report: Aug 1, 2015 at 6:00 AM


Visibility: 15 mi

Pressure: 29.65 "Hg

Humidity: 94%

Dew point: 54 °F

Location of BathurstLocation

Historic Weather in Bathurst — Graph

°F

Bathurst temperature yesterday

Maximum temperature yesterday: 79 °F (at 11:00 AM)
Minimum temperature yesterday: 64 °F (at 11:00 PM)
Average temperature yesterday: 72 °F

Past Weeks' High & Low Weather Summary

 TemperatureHumidityPressure
High79 °F (Jul 28, 6:00 PM)100% (Jul 18, 11:00 PM)30.13 "Hg (Jul 18, 11:00 PM)
Low45 °F (Jul 25, 5:00 AM)36% (Jul 17, 5:00 PM)29.53 "Hg (Jul 31, 4:00 PM)
Average62 °F85%29.85 "Hg
* Reported Jul 17 6:00 AM — Aug 1 6:00 AM, Bathurst, Weather by CustomWeather, © 2015

Note: Actual official high and low records may vary slightly from our data, if they occured in-between our weather recording intervals... More about our weather records

Advertising

Bathurst weather history for previous 24 hours

 ConditionsComfort  
Time TempWeatherWind HumidityBarometerVisibility
6:00 AM
Sat, Aug 1
55 °FPassing clouds.2 mph94%29.65 "Hg15 mi
5:00 AM57 °FClear.3 mph94%29.64 "Hg15 mi
4:00 AM57 °FClear.3 mph94%29.65 "Hg15 mi
3:00 AM59 °FPassing clouds.2 mph94%29.66 "Hg15 mi
2:00 AM61 °FClear.6 mph88%29.65 "Hg12 mi
1:00 AM66 °FClear.7 mph78%29.64 "Hg12 mi
12:00 AM66 °FClear.6 mph83%29.64 "Hg15 mi
11:00 PM
Fri, Jul 31
64 °FPassing clouds.5 mph88%29.62 "Hg15 mi
10:00 PM70 °FPartly cloudy.2 mph78%29.62 "Hg15 mi
9:00 PM68 °FPartly sunny.2 mph78%29.60 "Hg15 mi
8:00 PM73 °FBroken clouds.5 mph65%29.57 "Hg15 mi
7:00 PM77 °FPassing clouds.6 mph61%29.55 "Hg15 mi
6:51 PM77 °FScattered clouds.7 mph61%29.54 "Hg15 mi
6:00 PM75 °FSprinkles. Partly sunny.12 mph57%29.54 "Hg15 mi
5:00 PM77 °FPartly sunny.3 mph69%29.54 "Hg8 mi
4:00 PM77 °FBroken clouds.10 mph69%29.53 "Hg15 mi
3:00 PM77 °FScattered clouds.8 mph74%29.54 "Hg15 mi
2:00 PM73 °FScattered clouds.6 mph78%29.56 "Hg15 mi
1:00 PM75 °FPartly sunny.9 mph78%29.56 "Hg15 mi
12:00 PM79 °FBroken clouds.5 mph70%29.57 "Hg15 mi
11:00 AM79 °FScattered clouds.6 mph70%29.57 "Hg15 mi
10:00 AM75 °FFog.6 mph74%29.58 "Hg4 mi
9:00 AM70 °FFog.6 mph88%29.59 "Hg4 mi
8:00 AM68 °FSprinkles. Fog.5 mph94%29.60 "Hg6 mi
7:00 AM68 °FBroken clouds.6 mph88%29.59 "Hg12 mi
Weather by CustomWeather, © 2015

See weather overviewHow to use our weather pages